Temp
21 21 21 21 21 22 22 22 22 22 22 22 22 21 21 21 21 21 21 22 22 22 22 22 22 22 22 22 22 23 23 22 22 22 22 22 22 22 22 22 22 22 22 22 22 22 22 22 22 22 22 22 22 22 22 22 22 22 22 22 22 22 22 22 23 23 23 22 22 22 22 22 22 22 22 22 22 22 22 22 22 22 21 21 21
21 21 21 22 22 22 22 22 22 22 22 22 22 21 22 21 21 21 21 21 21 21 21 22 22 22 22 22 23 22 22 23 22 22 22 22 22 22 22 22 22 22 22 22 22 22 22 22 22 22 22 22 22 22 22 22 22 22 22 22 22 22 22 22 22 22 22 22 22 22 22 22 22 22 22 22 22 22 22 22 22 22 21 21 21
21 22 22 22 22 22 22 22 22 22 22 22 21 21 22 21 21 21 21 21 21 21 21 21 22 22 22 22 23 22 22 23 22 22 22 22 22 22 22 22 22 22 22 22 22 22 22 22 22 22 22 22 22 22 22 22 22 22 22 22 22 22 22 22 22 22 22 22 22 22 22 22 22 22 22 22 22 22 22 22 22 22 21 21 21
21 22 22 22 22 21 22 22 22 22 22 22 21 21 21 21 21 21 21 21 22 22 22 22 22 22 22 21 22 22 22 22 22 22 23 22 21 22 22 22 22 22 22 22 22 22 22 22 22 22 22 22 22 22 22 22 22 22 22 22 22 22 22 22 22 22 22 22 22 22 22 22 22 22 22 22 22 22 22 22 22 22 21 21 21
21 22 22 22 21 21 21 22 22 22 22 22 21 21 21 21 21 21 21 21 22 22 22 22 22 22 22 21 21 22 22 22 22 22 23 22 22 22 22 22 22 22 22 22 22 22 22 22 22 22 22 23 22 22 22 22 23 22 22 22 22 22 22 22 22 22 22 22 22 22 22 22 22 22 22 22 22 22 22 22 22 22 22 21 21
21 22 22 21 21 22 22 22 22 22 22 22 21 21 21 21 21 21 21 21 22 22 22 22 22 22 22 22 22 22 21 22 22 22 22 22 22 22 22 22 22 22 22 22 22 22 22 22 22 22 22 22 22 22 23 23 23 23 22 22 22 22 22 22 22 22 22 22 22 22 22 22 22 22 22 22 21 22 22 22 21 22 22 22 22
22 22 21 21 22 22 22 22 22 22 22 21 21 21 21 21 21 21 21 22 22 22 22 22 22 22 22 22 22 22 22 22 22 22 22 22 22 22 22 22 22 22 22 22 22 22 22 22 22 22 22 22 22 23 23 23 23 23 22 22 22 22 22 22 22 22 22 22 22 22 22 22 22 22 22 22 21 21 21 21 21 21 21 21 21
22 22 21 22 22 22 22 22 22 22 21 21 21 21 21 21 21 21 22 22 22 22 22 22 22 22 22 22 22 22 22 22 22 22 21 22 22 22 22 22 22 22 22 22 22 22 22 22 22 22 22 22 23 23 23 23 23 23 22 22 22 22 22 22 22 22 22 22 22 22 22 22 22 22 22 22 21 21 21 21 21 21 21 21 21
22 22 22 22 22 22 22 21 22 22 21 21 21 21 21 21 21 21 22 22 22 22 22 22 22 22 22 22 22 22 21 22 22 22 21 22 22 22 22 22 22 22 22 22 22 22 22 22 22 22 22 22 23 23 23 23 23 23 22 22 22 22 22 22 23 23 22 22 22 22 22 22 22 22 22 21 21 21 21 21 21 21 21 21 21
22 22 22 23 22 22 21 21 22 21 21 21 21 21 21 21 21 21 21 22 22 22 22 22 22 22 22 22 22 21 21 21 22 22 21 21 22 22 22 22 22 22 22 22 22 22 22 22 22 22 23 23 23 23 23 23 23 23 23 23 23 22 22 22 23 23 22 22 22 22 22 22 22 21 21 21 21 21 21 21 21 21 21 21 21
22 22 22 23 22 21 21 21 21 21 21 21 21 21 21 21 21 21 21 22 22 22 22 22 22 22 22 22 22 22 21 20 21 22 21 21 22 22 22 22 22 21 22 22 22 22 22 22 22 22 22 23 23 23 23 23 23 23 23 23 23 23 23 23 23 23 23 23 22 22 22 22 21 21 21 21 21 21 21 21 21 21 21 21 21
22 22 22 22 22 21 21 21 21 21 21 21 21 21 21 21 21 21 21 22 22 21 22 22 22 22 22 21 21 21 21 21 21 22 21 21 22 22 22 22 22 22 22 22 22 22 22 22 22 22 22 23 23 23 23 23 23 23 23 23 23 23 23 23 23 23 23 22 22 22 22 22 21 21 21 21 21 21 21 21 21 21 21 21 21
22 22 22 22 21 21 21 21 21 21 21 21 21 21 21 21 21 21 21 22 21 21 22 22 22 22 21 21 21 21 22 21 22 22 22 22 22 22 22 22 22 22 22 22 22 22 22 22 22 22 23 23 23 23 23 23 23 23 23 23 23 23 23 23 23 23 23 22 22 22 22 21 20 21 21 21 21 21 21 21 21 21 21 20 20
22 22 22 22 21 21 21 21 21 21 21 22 22 22 22 21 21 21 21 21 21 21 22 21 21 21 21 21 21 21 21 22 22 22 22 22 22 22 22 22 22 22 22 22 22 22 22 22 22 23 23 23 23 23 24 24 23 23 23 23 23 23 23 23 23 23 23 22 22 22 22 22 21 21 21 21 21 21 21 21 21 20 20 20 20
22 22 22 21 21 21 21 21 21 21 21 22 22 22 22 22 21 21 21 21 21 21 21 21 21 21 21 21 21 21 21 21 22 22 22 22 22 22 22 22 22 22 22 22 22 22 22 22 23 23 23 24 24 24 24 24 24 24 24 24 24 24 23 23 23 23 23 22 22 23 23 22 21 21 21 21 21 21 21 21 20 20 20 20 20
22 22 22 21 21 21 21 21 21 21 21 22 22 22 22 22 21 21 21 21 21 21 21 21 21 21 20 21 21 21 21 21 22 22 22 22 22 22 22 22 22 22 22 22 22 22 22 23 23 23 24 24 24 24 24 24 24 24 24 24 24 24 24 24 23 23 23 23 23 23 23 22 20 20 21 20 20 20 21 20 20 20 20 20 20
22 22 22 22 22 22 22 22 21 21 22 22 22 22 22 22 22 21 21 21 21 22 21 21 21 21 20 21 21 21 21 21 21 22 22 22 22 22 22 22 22 22 22 22 22 22 22 23 23 24 24 24 25 24 24 24 24 24 24 24 24 24 24 24 24 24 24 24 23 23 23 22 20 20 20 20 20 20 20 20 20 20 20 20 20
23 23 23 23 23 22 22 22 21 22 22 22 21 21 22 22 22 21 22 22 22 21 21 21 21 21 21 21 21 21 21 21 21 22 21 21 22 22 22 22 22 22 22 22 22 22 22 23 23 24 24 24 24 24 25 25 25 25 25 25 25 25 25 25 24 24 24 24 24 24 23 23 21 20 20 20 20 20 20 20 20 20 20 20 20
23 23 23 23 22 22 22 22 22 22 22 22 21 21 22 22 21 21 22 22 22 21 21 21 21 21 21 21 21 21 21 21 21 21 22 22 22 22 22 22 22 22 22 22 22 22 23 23 23 24 24 24 25 25 25 25 25 25 25 25 25 25 25 26 25 24 25 24 24 24 24 23 22 21 20 20 20 20 20 20 20 20 20 20 20
23 23 22 22 22 22 22 22 22 22 22 22 21 21 22 22 21 21 22 22 22 21 21 21 21 21 20 21 21 21 21 21 21 21 21 22 22 22 22 22 22 22 22 22 23 23 23 23 23 24 24 24 25 25 25 25 25 25 25 25 25 25 25 26 25 24 25 25 24 24 24 24 23 22 21 21 20 20 20 20 20 20 20 20 20
23 23 23 22 22 22 22 22 21 22 22 22 21 21 21 21 21 21 21 22 22 21 21 21 21 21 21 21 21 21 22 21 21 21 21 22 22 22 22 22 22 22 22 22 23 23 23 23 23 24 24 24 24 24 25 25 25 25 25 25 26 26 25 25 25 25 25 25 25 24 24 24 24 23 23 22 21 21 21 20 20 20 20 21 20
24 23 23 23 22 22 22 22 22 22 21 21 21 21 21 21 21 21 21 21 21 21 21 21 21 21 21 21 21 21 22 22 22 21 21 22 22 22 22 22 22 22 23 23 23 23 23 24 24 24 24 24 24 24 24 25 25 25 25 25 26 26 26 25 25 25 26 25 25 25 25 25 24 24 24 23 23 22 21 21 20 20 20 20 20
24 23 23 23 23 22 22 22 22 21 21 21 21 21 21 21 21 21 21 21 21 21 21 21 21 21 21 21 21 22 22 22 21 22 22 22 22 22 22 22 22 23 23 23 23 23 24 24 24 24 24 24 24 25 25 25 25 25 25 26 26 26 26 26 25 26 26 25 25 25 25 25 25 25 25 24 23 22 21 21 21 20 20 20 20
24 24 23 23 23 23 22 22 22 22 22 21 21 21 21 21 21 21 21 21 21 21 21 21 21 21 22 22 22 22 22 21 21 22 22 22 22 22 22 22 22 23 23 23 23 23 24 24 24 24 24 24 24 25 25 25 25 25 26 26 26 26 26 26 26 26 26 25 25 25 26 26 25 25 25 24 24 22 21 21 21 20 20 20 20
24 24 24 24 23 23 23 23 22 22 22 22 21 21 21 21 21 21 21 21 21 21 21 21 21 21 22 22 22 22 22 22 22 22 22 22 22 23 23 22 23 24 24 24 24 24 24 24 24 24 25 25 25 25 25 25 25 25 26 26 26 27 26 25 26 26 26 26 26 26 26 26 26 26 25 25 24 22 21 21 21 21 20 21 21
25 24 24 24 24 23 23 23 22 23 23 22 22 21 21 21 21 21 21 21 21 21 21 21 21 21 21 21 22 22 22 22 22 22 23 23 23 23 23 23 24 24 24 24 24 24 24 25 25 25 25 25 25 25 25 25 25 25 26 26 26 27 26 26 27 27 27 26 26 27 27 26 26 26 26 25 24 23 22 22 22 21 20 21 22
25 25 25 24 24 23 23 23 23 23 22 22 22 21 21 21 21 21 21 21 21 21 21 21 21 21 21 21 22 22 22 22 22 23 23 23 23 23 23 23 24 24 24 24 24 25 25 25 25 25 25 25 26 26 26 25 25 26 26 27 27 27 27 27 27 27 27 27 27 27 27 27 26 26 26 26 25 25 24 23 22 21 21 22 23
26 25 25 24 24 24 23 23 23 23 22 22 22 22 21 21 21 21 21 21 21 21 21 22 22 21 21 21 22 22 22 22 22 23 23 24 23 23 23 23 24 24 24 24 25 25 25 25 25 25 25 26 26 26 27 26 26 27 27 27 28 28 28 27 27 27 27 27 27 28 27 27 27 26 26 26 26 25 25 24 23 23 23 23 23
26 26 25 25 24 24 24 23 23 23 22 22 22 21 21 21 21 21 21 21 21 21 21 21 22 21 21 22 22 22 22 22 23 23 23 23 23 23 23 23 24 24 24 25 25 25 25 25 25 25 26 26 26 27 27 27 27 28 28 28 28 28 28 28 28 28 27 27 27 28 27 27 27 26 26 26 26 26 26 25 24 23 23 24 24
26 26 26 25 24 24 24 23 23 23 22 22 22 21 21 21 21 21 21 21 21 21 21 21 22 22 22 22 22 22 22 23 23 23 23 23 23 23 23 24 24 24 25 25 25 25 26 26 26 26 26 27 27 27 28 28 28 28 29 29 29 29 28 28 28 28 27 27 27 28 27 27 27 26 26 26 26 26 26 26 25 25 24 24 24
26 26 26 25 24 24 24 24 23 23 23 22 22 22 21 21 21 21 21 21 21 21 21 21 22 22 22 22 22 22 22 23 23 23 23 23 23 24 24 24 24 25 25 25 26 26 26 26 26 27 27 27 28 28 28 29 29 29 29 29 29 29 29 29 28 28 28 27 27 28 28 27 27 27 27 27 27 27 27 26 26 25 25 25 25
27 27 26 25 25 24 24 24 23 23 23 23 22 22 22 21 21 21 21 21 21 21 21 21 22 22 22 22 22 22 23 23 23 23 23 24 24 24 24 24 25 25 26 26 26 26 26 26 27 27 27 27 28 28 28 29 29 29 29 29 30 29 29 29 29 28 28 28 27 28 28 28 27 27 27 27 27 27 27 27 26 26 25 26 26
27 27 26 26 25 25 24 24 23 23 23 23 23 22 22 21 21 21 21 21 22 22 22 21 22 22 23 23 23 23 23 23 23 24 24 24 24 24 25 25 25 26 26 26 26 26 26 26 27 27 27 27 28 28 28 29 30 30 30 30 30 30 29 29 29 28 28 28 28 28 28 28 28 28 28 28 28 27 27 27 27 26 26 26 26
27 26 26 26 25 24 24 24 24 23 23 23 23 23 22 22 21 21 21 22 22 22 22 22 22 22 23 23 23 23 23 23 24 24 24 25 24 25 25 25 26 26 26 26 26 26 26 27 27 27 27 27 28 28 28 29 30 30 30 30 30 30 29 29 29 29 28 28 28 28 28 28 28 28 28 28 28 28 27 27 27 27 26 26 26
27 26 26 26 25 25 24 24 24 23 23 23 23 23 22 22 22 22 22 22 22 22 22 22 22 22 23 23 23 23 23 24 24 24 25 25 24 25 25 25 26 26 26 26 26 26 26 27 27 27 27 27 28 28 28 29 29 30 30 30 31 30 30 29 29 29 29 29 28 28 28 28 28 28 28 28 28 28 28 28 28 27 27 27 27
28 27 26 26 25 25 25 24 24 24 23 23 23 23 23 22 22 22 22 22 22 22 22 23 23 23 23 23 23 24 24 24 24 24 24 24 25 25 25 25 26 26 26 26 26 26 26 27 27 27 27 27 28 28 29 29 29 30 30 30 31 30 30 30 29 29 29 29 29 28 28 28 28 28 28 28 28 28 28 28 28 28 27 27 27
28 27 27 27 26 25 25 25 24 24 24 23 23 23 23 22 22 22 22 22 22 22 22 22 23 23 23 23 23 24 24 24 24 24 24 24 25 25 25 25 26 26 26 26 26 26 26 26 27 27 27 27 28 28 29 29 30 30 31 31 31 30 31 30 30 29 29 29 29 29 29 29 29 29 29 29 29 29 29 29 29 28 28 27 27
28 28 27 27 26 26 25 25 25 24 24 24 24 23 23 23 23 23 23 22 23 23 23 23 23 23 23 23 24 24 24 24 24 24 24 25 25 25 25 25 25 26 26 26 26 26 26 26 27 27 27 27 28 28 29 29 30 31 31 31 31 30 30 30 30 30 29 29 29 29 29 29 29 30 30 30 30 29 29 29 29 29 28 28 28
29 28 28 27 26 26 26 25 25 24 24 24 24 23 23 23 23 22 23 23 23 23 23 23 23 23 23 24 24 24 24 24 24 24 24 25 25 25 25 25 25 25 25 26 26 26 26 27 27 27 27 27 27 28 29 29 30 31 30 31 31 30 30 30 30 30 30 30 30 30 30 30 30 30 30 30 30 29 29 29 29 29 29 29 28
29 29 28 27 27 26 26 25 25 24 24 24 23 23 23 23 23 23 22 23 23 23 23 23 23 23 23 24 24 24 24 24 24 24 25 25 25 25 25 25 25 25 25 26 26 26 26 26 27 27 27 27 28 28 29 29 30 30 30 31 31 30 30 30 30 30 30 30 30 30 30 30 30 30 30 30 30 30 30 29 29 29 29 29 28
29 28 28 27 27 26 26 25 25 25 24 24 23 23 23 23 23 23 23 23 23 23 23 23 23 23 23 24 24 24 24 24 24 24 25 25 25 25 25 25 25 25 25 26 26 26 26 26 27 27 27 27 28 28 29 29 30 30 30 30 30 31 30 30 30 31 30 30 30 30 30 29 30 29 29 29 29 29 29 29 29 30 29 29 29
28 28 28 27 27 26 26 25 25 25 25 24 24 24 24 24 24 24 24 24 23 24 24 24 24 24 24 24 24 24 24 24 24 24 24 25 25 25 25 25 25 25 25 25 26 26 26 27 27 27 27 27 28 28 29 29 29 30 30 30 30 30 30 30 31 31 30 31 31 30 30 29 29 29 29 29 29 29 29 29 29 29 29 29 29
28 28 27 27 26 26 26 26 25 25 25 25 25 24 24 25 25 25 24 24 24 24 24 24 24 24 24 24 24 24 24 24 24 24 24 25 25 25 25 25 25 25 25 25 26 26 26 27 27 27 27 27 28 28 28 29 29 29 29 30 29 29 30 30 30 30 31 31 31 31 30 30 30 30 29 29 29 29 29 29 29 29 29 29 28
28 28 27 27 26 26 26 26 25 25 25 25 26 25 25 25 25 25 25 24 25 25 24 24 25 24 24 24 24 24 25 25 25 24 25 25 25 25 25 25 25 25 25 25 26 26 26 27 27 27 27 27 28 28 28 28 29 29 29 29 28 29 29 29 29 30 30 30 30 31 31 30 30 30 29 29 29 29 29 29 29 29 29 28 28
29 28 27 27 26 26 26 26 25 25 26 26 26 26 26 26 26 25 25 25 25 25 25 25 25 25 24 24 24 25 25 25 25 25 25 25 25 25 25 25 25 25 25 25 26 26 26 27 27 27 27 27 27 27 28 28 29 29 28 28 28 29 28 28 28 29 30 30 30 30 30 30 30 30 30 30 29 30 30 29 29 29 29 28 28
29 28 28 27 26 26 26 26 26 26 26 26 26 26 26 26 26 26 26 26 25 25 26 25 25 25 25 25 25 25 25 25 25 25 25 25 25 25 25 25 25 25 25 25 26 26 26 27 27 27 27 27 27 27 28 28 28 29 29 29 29 29 28 28 28 28 29 30 30 30 30 30 30 29 29 29 29 29 29 29 29 28 28 28 27
29 29 28 27 26 26 26 26 26 26 26 26 26 26 26 26 27 26 27 26 26 26 26 26 25 25 25 25 25 25 25 25 25 25 25 25 25 25 25 25 25 25 25 26 26 26 27 27 27 27 27 27 27 27 27 28 28 28 29 29 29 29 29 29 28 27 28 29 30 30 30 30 29 29 29 29 29 29 29 29 28 28 28 27 27
29 29 28 27 26 26 26 26 26 26 26 26 26 26 26 26 26 26 26 27 26 26 26 26 26 26 25 25 25 25 25 25 25 25 25 25 25 25 25 25 25 25 26 26 26 26 27 27 27 26 27 27 27 27 27 28 28 28 28 29 29 29 29 29 29 28 28 28 29 29 29 29 29 29 29 29 29 29 29 29 28 28 28 28 28
29 29 29 28 27 26 26 26 26 26 26 26 26 26 26 26 26 26 26 26 26 26 26 26 26 26 26 25 25 25 25 25 25 25 25 25 25 25 25 25 25 25 26 26 26 26 27 27 27 26 27 27 27 27 27 27 27 28 28 28 29 29 29 29 29 28 27 28 28 27 28 28 29 29 29 29 29 29 28 28 28 28 28 28 28
30 29 29 28 26 26 26 26 26 26 26 26 25 26 26 25 26 26 26 26 26 26 26 27 27 26 26 26 25 25 25 25 25 25 25 25 25 25 25 25 25 25 26 26 26 26 26 26 26 26 27 27 26 27 27 27 27 27 28 28 28 28 29 28 28 28 27 27 27 27 27 27 27 28 29 29 29 28 28 28 28 28 28 28 28
30 29 29 27 27 26 26 26 26 26 26 26 25 25 25 25 26 26 26 26 26 26 26 27 27 26 26 26 26 26 26 25 25 25 25 25 25 25 25 25 25 25 26 26 26 26 26 26 26 26 26 26 26 27 27 27 27 27 28 28 28 28 29 28 28 28 28 26 27 26 26 27 27 28 29 28 28 28 28 28 28 28 28 28 28
Height
810 811 812 812 813 813 814 814 815 815 816 816 816 818 818 819 819 819 819 819 819 819 819 819 819 819 819 818 819 819 820 820 820 821 822 823 823 823 823 825 825 826 827 828 829 830 831 832 832 833 833 834 834 835 836 837 837 838 838 838 838 838 839 839 839 840 840 840 840 840 840 841 841 841 842 842 843 843 844 844 844 844 845 845 846
809 811 812 812 813 813 815 814 815 816 816 817 817 818 818 819 819 819 819 820 820 820 820 821 820 820 820 820 820 820 821 821 821 822 823 824 824 824 825 826 826 827 827 829 830 831 832 833 834 834 834 835 836 837 838 839 839 839 839 839 840 839 840 840 840 841 841 841 841 841 841 842 842 842 843 844 844 845 845 845 845 846 846 847 847
809 811 812 812 813 814 815 815 816 816 817 817 818 818 819 819 820 820 821 821 821 821 822 822 822 821 821 821 821 821 822 822 822 822 823 824 825 826 827 828 828 828 829 830 831 832 833 834 835 835 835 835 837 838 839 840 840 841 841 841 841 841 841 842 842 842 842 842 842 842 842 843 843 843 844 845 846 846 847 847 847 847 848 848 849
810 811 812 813 814 815 815 815 816 817 817 818 818 819 819 820 820 821 822 822 822 823 823 823 822 822 822 822 823 823 823 823 823 823 824 825 826 827 828 829 829 830 831 832 833 834 834 835 835 835 835 836 838 839 840 841 841 842 842 843 843 843 843 843 843 843 843 843 843 843 843 843 844 845 845 846 847 847 848 848 848 849 849 850 850
810 811 812 813 814 815 816 816 817 817 818 818 819 820 820 820 821 822 823 823 823 824 824 824 823 823 824 824 824 824 824 824 824 824 825 826 827 828 829 830 831 832 833 834 834 835 836 836 836 836 837 837 838 840 841 842 842 843 843 844 844 844 844 844 844 845 845 845 845 844 844 845 845 846 847 847 848 849 849 849 849 850 850 851 852
810 811 812 813 815 815 816 817 817 818 819 819 819 820 821 821 822 823 824 824 824 824 824 824 825 825 825 826 826 825 825 825 825 826 826 827 827 828 830 831 833 833 834 835 836 836 837 837 838 838 838 839 840 841 842 843 843 843 844 844 844 845 845 845 845 846 846 846 846 845 845 846 846 847 848 849 849 849 850 850 850 851 851 852 853
810 811 813 813 815 815 816 817 818 819 819 820 820 821 821 822 823 824 825 825 825 825 825 826 826 826 827 827 827 827 826 826 827 828 828 828 828 829 831 832 834 834 835 836 837 838 838 839 839 839 840 840 841 842 843 843 844 844 845 845 845 845 845 846 846 846 846 847 846 846 846 847 847 848 849 850 850 850 850 851 851 852 852 853 853
810 812 813 814 815 815 816 817 818 819 820 821 821 822 823 824 825 825 825 825 826 826 826 827 827 827 828 828 828 828 828 828 829 829 830 829 829 830 831 833 835 836 836 837 838 839 840 841 841 841 841 842 842 843 843 844 844 845 845 845 845 845 845 846 846 847 847 847 847 847 847 847 848 849 850 850 851 851 851 852 852 853 853 854 854
811 812 812 814 814 815 816 818 819 820 820 821 822 823 824 825 825 826 826 826 826 826 827 828 829 829 829 829 830 830 830 830 831 831 832 832 831 831 833 835 836 837 838 839 840 841 842 842 842 842 843 843 843 843 844 845 845 845 846 846 846 845 845 846 847 847 847 847 847 847 847 848 849 849 850 850 851 851 852 852 853 853 854 854 854
811 811 813 813 814 816 817 818 819 820 821 822 823 823 824 825 826 826 826 827 827 827 828 829 829 830 830 830 831 832 832 832 832 832 833 834 834 833 834 836 837 838 840 840 841 842 843 843 844 844 844 844 844 844 845 845 845 846 846 847 847 847 846 847 847 848 848 848 848 848 848 849 849 850 850 851 851 852 852 853 853 854 854 854 855
810 811 812 813 815 816 817 819 819 820 822 822 823 823 824 825 826 827 827 827 827 828 828 829 830 830 831 831 832 833 833 834 834 834 834 835 835 835 836 837 838 840 841 841 842 843 844 844 845 845 845 845 845 845 846 846 846 847 847 848 847 848 847 848 848 848 848 848 848 848 849 849 849 850 851 851 852 852 853 853 854 854 854 855 856
811 812 812 814 815 817 818 819 820 821 822 823 824 823 824 825 826 826 827 828 828 828 829 830 830 831 832 832 833 834 834 835 835 836 836 836 837 837 838 838 839 841 842 843 844 844 845 845 846 846 846 846 846 846 847 847 847 848 848 848 848 848 848 848 848 848 849 849 849 849 850 850 850 851 851 852 852 853 853 853 854 854 855 856 856
811 812 813 814 815 818 819 820 821 822 823 823 824 824 825 825 827 827 827 828 828 829 829 830 831 832 832 833 834 835 835 836 837 837 837 837 838 839 839 839 841 843 844 845 845 846 846 846 846 847 847 847 847 847 848 848 848 848 848 848 848 849 848 848 849 849 849 849 849 850 850 851 851 851 852 852 852 853 853 854 854 855 856 856 857
811 812 813 814 816 818 819 821 821 822 823 824 824 825 825 826 826 827 827 828 829 829 830 831 831 832 833 834 835 835 837 837 838 838 838 839 839 840 840 841 843 845 845 846 846 847 847 847 847 847 847 847 847 848 848 848 848 848 849 849 849 849 849 849 849 849 849 850 850 850 851 851 851 852 852 852 852 853 853 854 855 856 856 856 857
811 812 813 815 816 818 819 821 821 823 823 824 825 825 826 826 826 827 828 828 829 830 830 831 832 833 833 834 836 836 838 839 839 839 839 839 840 842 841 842 844 847 847 847 847 848 848 848 848 848 848 848 848 848 848 849 849 849 849 849 849 849 849 849 850 850 850 850 850 850 851 851 851 852 852 852 853 853 853 854 855 856 856 856 857
812 812 814 815 817 818 819 821 822 823 823 824 825 825 826 825 826 827 828 829 830 830 831 832 832 833 834 836 837 838 839 840 840 840 841 841 841 842 841 843 846 848 848 848 848 849 849 849 849 848 849 848 848 849 849 849 849 849 849 848 849 849 849 849 850 850 849 850 850 850 851 851 852 852 852 853 853 853 854 854 855 856 856 856 856
813 813 814 816 817 818 819 820 821 823 823 824 825 825 825 825 826 827 828 829 830 831 831 832 833 834 835 836 838 839 839 840 841 842 842 843 843 843 844 847 848 848 848 848 849 849 850 850 849 849 849 849 849 849 849 849 849 849 849 849 849 849 849 849 850 850 849 850 850 851 850 851 851 852 852 853 853 853 854 855 855 856 856 856 857
813 814 815 816 817 818 819 820 821 823 823 824 825 825 825 826 826 826 828 829 830 831 832 833 833 834 836 837 838 839 840 841 842 843 844 844 845 846 847 849 849 849 849 849 850 850 850 850 850 850 850 850 850 849 850 850 850 849 849 849 849 849 849 849 850 850 849 850 850 850 850 851 851 852 853 853 853 854 854 855 856 856 856 856 857
814 815 815 817 817 819 819 821 822 822 823 824 824 825 826 826 826 827 828 830 830 831 832 833 834 835 836 837 839 840 841 842 843 844 845 846 846 847 848 848 849 849 849 850 850 851 851 851 851 851 851 850 850 850 850 850 850 850 850 849 849 849 849 849 850 849 849 850 850 850 850 851 851 852 852 853 854 854 854 855 856 856 856 857 857
814 815 816 817 818 819 820 821 822 822 823 824 825 825 826 826 827 828 829 830 830 831 833 834 834 835 837 838 839 840 841 842 843 844 846 846 846 847 847 848 849 850 850 851 851 851 851 851 851 851 851 851 850 850 850 850 850 850 850 850 850 849 849 849 850 849 849 850 850 851 851 851 851 852 852 853 853 854 854 855 856 856 856 857 857
815 816 817 818 818 820 820 821 821 822 823 823 825 825 826 827 827 828 829 830 830 832 833 834 835 835 837 838 839 840 841 842 843 845 846 846 846 847 847 848 849 850 851 851 852 852 852 852 852 852 851 851 851 851 851 851 851 851 851 850 850 850 849 849 849 849 849 850 851 851 851 851 851 852 852 853 853 854 854 854 855 856 856 857 857
815 816 817 818 819 819 820 821 821 822 823 824 825 825 826 827 828 829 829 830 831 833 833 834 835 836 837 838 839 840 841 842 843 845 845 845 846 847 847 848 849 850 851 852 852 852 852 852 852 852 852 852 851 851 851 851 851 851 851 851 850 850 849 849 849 849 850 850 851 851 851 851 851 852 852 853 853 853 854 854 855 856 856 857 857
814 815 817 818 818 819 820 820 821 822 822 823 824 825 825 826 828 828 829 830 831 832 832 833 835 836 837 838 839 840 841 842 844 845 845 845 845 846 847 848 850 851 852 852 853 853 853 853 853 853 852 852 852 852 852 851 851 851 851 851 850 850 850 849 850 850 850 851 851 851 851 851 851 852 852 852 853 853 853 854 855 856 856 857 857
813 814 816 817 819 819 820 820 820 821 821 822 823 824 824 826 827 828 828 829 830 831 832 833 835 836 837 838 839 840 841 842 843 844 844 844 845 846 847 848 850 851 852 852 853 853 854 854 853 853 853 853 852 852 852 852 851 851 852 851 851 850 850 850 850 850 850 851 851 851 851 851 851 851 852 852 852 853 853 854 854 855 856 856 856
812 814 816 817 818 819 819 820 820 820 821 822 822 823 824 825 827 827 828 828 829 831 832 833 835 836 837 838 839 840 841 842 843 843 843 844 845 846 847 848 850 851 852 852 853 853 854 854 853 853 853 853 852 852 852 852 851 851 852 851 851 850 850 850 850 850 851 851 851 851 851 851 851 851 851 851 852 852 853 854 854 855 855 856 855
812 814 815 817 818 818 819 819 820 820 821 821 822 823 824 825 826 827 828 828 830 831 832 833 834 836 837 838 839 840 841 842 842 842 843 844 845 846 847 848 850 851 852 853 853 853 854 853 853 853 853 853 852 852 852 852 851 851 851 851 851 850 850 850 850 851 851 851 851 851 851 851 851 850 850 851 851 852 852 853 853 854 855 855 855
812 813 815 816 817 818 819 818 819 820 820 821 822 823 824 825 826 827 828 828 830 831 832 832 834 836 837 838 839 840 840 841 842 842 843 844 845 846 847 849 850 851 852 853 853 853 853 853 853 853 853 852 852 851 851 852 851 850 851 850 850 850 850 851 850 850 850 850 850 850 850 850 850 850 850 850 851 851 851 852 853 854 854 854 854
811 813 814 816 817 818 818 818 818 819 820 821 822 823 824 825 826 826 828 828 830 831 832 833 834 836 837 839 839 840 840 840 841 842 844 844 845 847 848 849 850 851 852 853 853 853 853 852 853 852 852 852 851 850 850 850 850 850 850 850 850 851 851 851 850 850 850 850 850 850 850 850 850 850 850 850 850 851 851 852 852 853 854 854 854
810 812 814 815 816 817 817 817 817 819 820 821 821 822 823 824 825 826 827 828 829 831 832 833 834 837 838 839 840 840 840 840 841 842 844 845 846 848 849 850 851 851 852 853 853 852 852 852 852 852 851 851 850 850 849 849 849 849 850 850 850 850 850 850 850 850 850 850 850 850 850 850 850 850 850 850 850 851 851 851 852 853 853 854 854
810 811 813 814 816 816 817 817 817 819 820 821 821 822 823 824 824 826 827 828 829 831 832 833 835 837 838 840 840 840 841 841 842 843 845 846 847 848 849 850 851 851 852 853 852 852 852 852 852 851 851 850 850 849 849 849 849 850 850 850 850 850 850 850 850 850 850 850 850 850 850 850 851 851 851 850 850 851 851 851 852 853 853 853 853
809 811 813 814 815 816 816 816 817 819 820 821 822 822 823 823 825 826 827 828 829 830 832 834 835 837 838 840 840 841 842 842 843 845 845 847 848 849 849 850 851 852 852 853 852 852 852 852 852 851 850 849 849 849 848 848 849 850 850 849 849 849 850 850 850 850 850 850 850 850 850 850 851 851 851 851 851 851 851 851 852 853 853 853 853
809 810 812 814 815 816 816 817 817 819 820 821 822 823 823 824 825 826 827 828 829 830 832 834 835 837 838 840 841 841 843 843 844 845 846 847 848 849 850 851 851 852 853 853 853 853 852 852 852 851 850 849 849 849 848 848 848 848 848 849 848 849 849 849 849 850 850 850 850 850 850 850 850 851 851 850 851 851 851 851 852 852 853 853 852
808 810 812 813 815 816 816 817 818 819 820 820 822 823 823 824 825 826 827 828 829 830 832 834 835 837 838 839 841 842 843 844 845 846 846 847 848 849 850 851 852 852 852 852 852 852 852 852 851 851 850 849 849 848 848 848 848 847 848 849 848 848 848 849 849 849 850 850 850 851 850 850 850 850 851 851 851 851 852 852 852 853 853 852 852
807 809 812 813 814 815 816 817 818 819 819 820 821 822 824 824 825 826 827 828 829 831 832 834 836 837 838 839 841 842 843 844 845 846 846 847 848 850 850 851 851 852 852 852 852 852 851 851 851 850 850 849 849 849 848 848 848 848 848 849 848 848 849 849 849 849 850 850 851 851 851 851 851 851 851 851 851 851 852 852 852 852 852 852 852
806 809 811 813 814 815 817 817 818 819 819 820 821 822 824 824 826 827 828 829 830 831 833 834 836 837 839 840 841 842 843 844 845 846 847 848 849 850 851 851 851 852 852 852 852 852 851 851 850 850 849 849 849 849 849 848 848 848 848 848 849 849 849 849 849 849 850 850 851 851 851 851 851 851 851 851 851 851 852 852 852 852 852 852 852
805 808 811 812 814 815 817 817 818 819 819 820 822 823 824 825 826 827 828 829 830 832 833 835 836 838 839 840 841 842 843 845 845 846 847 848 849 850 850 851 851 851 851 851 852 852 851 851 851 850 850 850 850 849 849 849 848 848 848 848 849 849 848 849 850 850 850 850 851 851 851 851 851 851 851 851 851 851 851 851 851 851 851 851 851
805 807 810 812 814 815 817 817 818 819 820 821 822 823 824 826 826 827 828 830 831 832 834 835 836 838 839 840 841 842 844 845 846 846 847 848 849 850 850 850 851 851 851 852 852 852 852 851 851 851 851 850 850 849 849 849 849 848 849 849 849 849 849 850 850 850 851 850 850 850 850 851 851 850 850 850 850 850 851 850 850 850 850 850 850
805 807 809 811 813 815 817 818 819 819 820 821 822 824 825 827 827 828 829 830 832 833 834 835 836 837 839 840 841 843 844 845 845 846 846 848 849 850 850 850 851 851 851 851 852 852 852 852 852 852 851 851 850 850 849 849 849 848 849 849 849 849 849 850 850 850 850 850 849 849 849 850 850 849 849 848 849 849 849 849 849 849 849 849 849
805 807 809 811 813 815 816 818 819 820 821 822 823 824 826 827 828 829 830 831 832 834 835 835 836 838 839 840 841 843 844 844 845 846 847 848 849 850 850 850 851 851 851 851 851 851 852 852 852 852 851 851 851 850 849 849 848 849 849 849 849 849 849 850 850 849 849 848 848 848 848 849 848 848 848 847 848 848 848 848 848 849 848 848 848
806 808 809 811 813 815 816 818 819 820 822 823 823 825 826 827 828 829 830 831 833 833 835 836 836 838 839 840 841 842 843 844 845 846 847 848 849 850 850 850 851 851 851 851 851 851 851 852 852 852 851 851 851 850 850 850 849 848 848 848 848 849 849 849 849 849 848 848 847 847 847 847 847 847 848 847 847 847 847 847 848 848 847 847 847
806 808 810 811 813 814 816 818 819 820 821 823 824 824 826 827 828 829 830 830 832 833 834 835 837 838 839 840 841 842 843 844 846 847 848 849 849 850 850 850 851 851 851 851 851 851 851 852 852 852 852 851 851 850 850 850 849 848 848 848 848 848 848 848 848 848 848 848 847 847 847 847 848 848 848 848 847 847 847 847 847 847 847 847 847
806 808 810 812 813 815 816 817 819 820 822 822 823 824 825 827 827 828 830 831 831 832 833 835 837 838 839 840 841 842 843 845 846 847 848 849 849 850 850 850 851 851 851 851 851 852 852 852 853 852 852 852 851 850 850 849 849 848 848 848 848 848 847 847 848 848 848 848 848 848 848 848 848 848 849 849 849 849 848 847 847 847 847 847 847
806 808 810 812 814 815 817 817 819 820 822 823 823 824 825 826 827 828 830 831 832 833 834 835 837 838 839 841 841 843 844 845 846 847 848 849 849 849 850 850 851 851 851 851 851 852 852 853 853 853 852 852 851 850 851 849 849 848 847 849 850 849 849 848 848 848 847 847 847 847 848 847 847 847 848 849 849 849 848 847 847 847 847 847 847
807 808 810 812 814 816 817 817 819 820 821 823 823 824 825 826 827 829 830 831 832 833 835 836 837 838 840 841 842 843 844 845 846 847 848 849 849 849 850 850 850 851 851 851 852 852 853 853 853 853 852 852 851 850 850 850 849 848 849 850 849 851 855 852 848 848 847 847 847 847 847 847 846 847 848 848 848 848 848 847 847 847 847 847 847
806 808 810 812 814 815 817 818 819 820 821 822 823 824 825 827 828 829 830 831 833 834 835 836 837 838 840 841 842 843 844 845 846 847 847 848 849 849 849 850 850 851 851 851 852 852 853 853 853 853 852 852 851 851 850 849 849 849 849 850 851 854 856 851 849 849 847 847 847 847 847 847 846 847 848 848 848 847 847 847 847 846 846 846 847
805 808 809 811 813 815 817 818 819 820 821 822 823 824 825 826 827 828 829 830 832 833 834 835 836 838 839 840 842 843 844 845 846 847 847 848 849 849 849 850 850 850 851 851 852 852 853 853 853 853 852 852 852 851 850 849 850 849 849 849 850 853 852 849 850 851 848 846 847 847 847 847 847 847 847 847 847 847 846 846 846 846 845 846 846
804 807 809 810 812 814 816 818 819 820 821 822 822 823 824 825 827 827 828 829 831 832 833 835 836 837 839 840 842 843 844 845 845 846 847 847 848 849 849 850 850 850 851 851 851 852 852 852 852 852 852 852 852 851 851 850 849 849 849 848 848 849 848 848 850 852 852 850 847 846 847 847 847 847 846 846 846 846 845 845 846 845 845 845 845
803 805 807 809 811 813 815 817 819 820 820 822 822 823 824 825 826 828 829 830 831 832 834 835 836 837 839 840 841 842 843 844 845 845 846 847 847 848 849 849 850 850 851 851 851 852 852 852 852 852 852 852 851 851 851 850 849 849 849 849 848 848 848 847 847 849 852 853 849 847 847 847 846 846 846 845 845 845 845 845 845 845 845 844 844
801 803 805 807 809 811 814 816 818 819 820 821 822 822 824 825 826 828 829 830 831 832 834 835 836 837 838 839 840 841 843 844 845 845 846 846 847 848 848 849 849 850 850 850 851 851 851 851 851 852 852 851 851 851 851 851 850 850 850 849 849 848 848 848 848 848 848 852 852 849 847 847 846 846 845 845 845 844 844 844 844 844 843 843 842
799 802 803 805 807 810 812 815 816 818 820 821 822 822 824 825 826 827 828 830 831 832 833 834 835 836 837 838 840 841 842 843 844 845 845 846 847 848 848 848 849 849 850 850 850 851 851 851 851 851 851 851 851 851 851 851 850 850 850 850 849 849 849 848 848 848 847 849 851 849 848 847 846 846 845 845 844 844 844 844 843 842 842 841 841
798 800 801 803 806 808 810 813 815 817 818 820 821 822 823 824 825 826 828 829 830 831 833 833 835 836 837 837 839 840 841 842 843 844 845 846 847 847 848 848 848 849 849 849 850 850 850 850 850 850 850 850 850 850 850 850 850 850 850 850 850 849 848 848 847 848 847 848 849 849 847 847 846 845 845 844 844 843 843 843 842 841 841 840 840
Wind_Speed
12 12 12 13 13 10 10 12 13 13 14 14 15 15 15 15 14 14 14 14 15 16 16 17 17 18 18 17 17 15 13 13 15 16 16 17 18 20 19 18 17 17 17 17 17 17 17 17 16 16 16 18 19 18 18 18 19 19 20 20 20 21 20 21 21 22 21 21 20 20 19 19 19 19 19 18 16 16 15 15 16 17 17 16 16
14 14 13 13 13 11 11 13 13 14 14 14 15 15 14 14 14 13 13 13 13 14 15 15 17 17 16 16 16 14 13 14 16 17 17 17 18 19 18 17 17 17 17 16 16 16 16 16 16 15 16 18 18 17 18 18 19 20 20 20 20 20 20 20 20 20 19 19 19 19 18 18 18 19 19 17 16 15 14 15 16 17 16 15 15
15 15 14 13 13 11 12 13 14 14 14 15 14 14 13 14 14 14 13 13 13 14 15 14 15 15 14 14 15 15 15 16 17 17 16 16 17 18 18 17 17 17 16 16 15 16 15 15 15 15 16 17 18 18 19 20 20 21 21 21 21 20 20 20 19 19 19 18 18 19 19 18 17 17 17 16 16 15 15 15 16 16 15 14 14
16 15 15 14 13 12 12 13 14 14 14 14 13 13 13 13 14 14 14 14 14 16 15 15 14 13 13 14 14 16 16 16 17 17 16 15 16 16 17 17 17 16 15 15 15 15 14 14 14 15 16 16 17 18 19 20 20 21 21 20 19 18 18 18 18 17 17 18 19 20 20 19 17 16 16 15 16 16 15 16 15 15 15 14 14
17 16 16 15 14 13 13 13 13 13 13 13 13 13 13 13 14 14 13 14 15 15 15 15 15 13 13 14 14 16 17 16 16 17 16 15 15 15 16 17 16 16 15 15 15 14 14 13 14 15 15 16 17 18 18 19 19 19 18 18 17 16 15 15 16 16 15 16 18 19 20 19 18 17 16 16 16 16 16 16 16 15 15 14 14
18 17 17 16 16 15 13 13 13 13 13 12 12 13 13 13 14 14 13 13 14 15 15 15 15 14 14 14 15 16 17 16 16 16 15 15 16 16 15 15 15 15 15 15 15 15 14 13 14 14 15 16 17 18 17 16 17 17 16 16 15 15 14 15 16 16 15 15 16 17 19 19 19 17 16 16 16 16 16 16 16 15 15 14 14
17 18 16 17 16 15 14 13 13 13 13 12 12 13 13 13 13 14 14 14 15 16 15 15 15 15 14 14 15 16 16 16 16 16 15 15 16 16 14 14 14 14 14 15 15 14 14 14 14 15 15 16 16 16 15 15 17 17 16 15 15 15 14 13 15 15 15 15 14 16 18 18 18 17 15 15 15 15 15 15 15 15 14 14 14
18 17 16 17 17 16 14 14 14 13 13 13 13 13 13 13 13 14 14 15 15 16 15 15 16 15 14 14 14 15 16 15 15 15 14 15 17 16 14 14 14 13 13 14 14 14 13 13 15 15 15 15 15 15 14 15 16 16 15 14 13 14 14 12 13 15 15 16 13 13 15 17 17 16 15 14 14 14 15 15 15 14 13 13 13
19 17 16 18 17 16 15 14 14 14 13 13 13 13 14 13 13 14 14 14 14 15 16 15 15 15 14 14 14 14 15 15 14 15 13 14 17 17 15 14 15 13 12 13 13 13 12 13 14 14 14 14 14 14 14 14 15 14 13 13 12 13 14 12 13 15 16 16 12 11 13 14 16 16 15 14 14 13 14 14 14 13 12 11 12
20 16 16 19 18 16 15 14 14 14 14 13 13 13 14 13 14 14 13 14 13 14 15 15 14 14 14 14 14 14 14 14 14 16 14 13 15 17 16 14 15 12 11 12 12 12 12 12 13 13 12 12 13 13 13 14 14 13 13 13 13 12 12 12 12 14 15 15 13 13 11 11 15 15 14 14 13 12 13 13 13 12 11 10 11
19 16 16 19 17 15 14 14 14 14 14 13 12 12 13 13 13 14 13 13 14 13 14 14 13 13 14 14 14 15 13 12 14 15 14 13 14 15 15 15 14 11 10 11 11 11 11 12 12 11 11 11 11 12 13 14 14 15 14 13 12 11 10 11 12 13 14 14 13 12 10 10 14 14 13 14 13 12 12 12 12 11 11 10 10
18 17 16 18 16 14 15 14 15 14 13 13 12 12 13 14 13 12 13 13 13 13 13 14 14 13 14 14 14 15 14 12 14 14 13 13 13 13 14 15 14 11 10 10 10 11 11 12 11 10 11 10 10 11 13 14 14 14 13 12 11 11 12 12 13 13 13 12 11 10 10 12 14 13 12 13 13 12 12 11 11 10 10 10 9
19 17 17 18 17 15 15 14 15 14 14 13 12 12 11 13 13 12 13 13 13 12 12 13 14 13 13 14 13 14 14 13 14 14 13 13 13 13 14 14 12 10 10 10 9 10 11 11 11 11 11 10 10 11 13 14 14 14 12 12 12 12 13 13 13 13 12 12 10 8 8 11 12 12 11 12 12 12 11 10 10 10 10 9 9
20 19 18 18 17 15 15 14 14 14 14 14 13 12 11 12 12 13 13 14 13 11 12 12 13 13 13 14 13 13 13 13 13 13 12 13 13 13 14 14 11 9 9 9 9 10 10 10 11 11 10 10 10 10 13 14 14 13 13 14 14 12 11 13 12 11 12 11 9 7 6 9 11 10 10 10 11 11 11 10 9 10 9 9 8
20 20 19 18 17 15 14 14 15 15 14 14 13 12 12 11 12 13 13 14 13 12 11 11 13 12 12 14 13 13 12 12 12 12 12 12 12 13 14 13 11 9 9 9 9 10 10 10 10 10 10 10 10 10 12 14 15 14 15 15 13 10 9 10 10 11 12 11 7 5 5 8 10 9 9 9 10 11 10 9 10 10 10 9 8
20 19 19 18 18 16 15 14 15 15 15 15 13 13 11 11 13 13 13 13 13 12 11 11 12 12 12 13 13 12 12 12 11 12 12 11 10 12 12 12 10 9 10 10 9 9 9 10 10 10 10 9 10 9 11 14 14 14 14 12 10 9 7 7 10 12 12 9 6 3 4 8 10 9 8 9 10 9 9 9 9 9 8 8 8
20 19 19 18 18 17 16 15 15 14 15 14 13 13 11 11 12 12 13 13 13 12 11 11 11 12 12 13 13 12 12 12 11 11 12 11 10 11 11 10 10 9 10 10 10 10 9 9 10 10 10 9 10 9 10 12 14 13 12 10 9 8 7 7 11 13 10 7 3 2 4 7 10 9 8 9 9 9 8 8 8 7 7 7 7
19 19 19 18 18 17 16 16 15 15 15 14 13 12 12 12 12 11 12 13 13 12 11 11 11 12 12 12 13 12 12 12 11 11 11 11 11 11 11 10 10 10 10 10 10 10 9 9 9 9 9 8 9 9 10 12 13 12 12 11 9 7 7 8 10 10 8 4 2 2 3 5 8 9 9 8 8 8 7 7 7 6 5 5 5
18 18 18 17 17 15 14 15 16 16 15 14 14 12 12 13 12 11 11 13 14 13 12 12 11 12 12 11 12 12 13 12 12 12 11 11 13 12 11 10 10 10 10 10 10 10 9 9 8 8 8 8 10 11 11 12 13 12 12 9 8 6 7 9 7 8 7 3 1 3 3 3 6 8 8 8 8 7 7 7 6 6 5 4 4
18 17 17 17 17 15 14 16 15 15 14 14 14 13 12 12 13 11 11 12 13 13 12 12 11 12 12 12 12 12 13 13 12 12 10 10 12 12 11 10 9 9 9 9 9 9 9 8 8 8 8 8 10 12 12 13 13 12 10 8 7 6 7 7 4 7 7 3 1 3 2 2 3 5 6 7 8 7 6 6 5 4 3 4 4
17 17 17 17 17 16 15 16 15 14 14 13 14 14 13 13 13 12 11 12 12 13 12 12 11 12 12 12 13 13 13 13 13 13 12 10 10 11 10 9 8 8 8 8 8 8 8 8 8 8 8 8 9 10 11 12 12 11 9 6 4 4 4 4 5 7 5 4 2 3 2 0 2 3 4 5 6 5 4 3 3 3 3 4 5
19 18 18 18 16 15 15 16 15 14 13 12 14 15 14 14 15 14 13 12 12 13 13 13 13 13 14 13 14 14 13 13 13 13 13 11 10 9 9 8 7 7 7 7 7 8 8 9 9 8 7 8 8 8 10 11 11 9 7 6 4 4 3 3 9 7 5 4 3 3 3 1 1 2 3 3 4 4 3 3 4 4 4 4 3
20 19 19 18 16 16 17 17 16 15 14 13 14 16 16 15 16 16 14 13 13 14 14 14 14 15 15 15 14 13 13 13 12 12 12 12 11 8 7 6 6 6 6 6 7 8 8 9 9 8 7 7 7 8 9 9 9 8 7 6 5 5 5 5 9 7 5 4 3 3 3 2 2 3 4 4 4 4 3 3 4 4 4 3 2
21 21 20 18 17 18 19 18 17 16 15 14 14 16 16 16 17 16 15 15 14 15 15 14 15 16 15 14 14 13 13 14 14 13 12 12 11 8 6 5 5 5 6 7 8 8 9 9 9 9 9 8 7 8 8 8 8 7 7 7 5 6 6 5 6 6 5 4 4 3 3 2 2 3 4 5 5 5 3 2 3 3 2 2 1
22 21 19 18 19 19 18 17 17 16 14 14 14 15 16 16 17 16 15 15 15 16 16 15 15 16 15 14 13 12 13 13 13 13 11 11 10 9 7 6 6 7 7 7 8 9 10 10 10 10 9 8 8 8 8 8 7 8 8 6 6 5 5 6 8 6 5 4 4 3 2 1 2 3 4 5 5 5 4 2 2 3 2 1 1
22 21 20 19 20 19 18 17 17 15 13 13 13 15 17 16 16 17 17 16 16 17 16 16 16 16 15 14 13 13 14 13 12 12 11 10 9 8 8 7 7 8 7 7 7 8 9 9 9 9 8 8 8 8 9 9 9 10 11 9 8 6 5 9 8 5 5 4 4 2 1 1 2 3 4 4 5 5 5 3 3 2 1 1 1
21 22 22 21 20 20 19 18 17 15 14 14 14 16 16 15 15 16 17 17 17 17 17 17 17 16 15 15 15 14 14 13 12 11 10 9 9 8 8 8 7 7 6 5 5 7 9 8 8 8 8 9 9 10 11 11 12 12 13 11 8 7 8 11 8 4 5 4 2 1 0 1 2 3 3 4 4 4 4 4 3 3 2 2 1
20 20 22 22 21 21 20 19 16 14 14 14 14 15 15 15 15 15 17 17 17 18 18 18 18 17 15 15 15 14 13 12 11 10 9 9 8 7 7 7 7 6 5 4 3 5 8 9 9 9 10 11 11 12 13 14 14 11 12 11 8 7 9 12 9 5 4 3 1 0 1 1 2 3 3 3 3 2 3 4 4 3 3 2 2
19 19 21 23 21 20 20 18 16 15 15 15 14 15 15 15 16 16 17 18 17 19 19 18 18 18 17 16 15 13 12 11 10 9 8 7 8 8 8 8 8 7 6 5 4 5 8 9 11 12 12 13 11 10 11 12 13 12 11 9 8 8 9 12 9 6 5 1 1 1 1 2 2 3 3 2 2 2 3 3 4 4 3 2 2
20 19 19 22 22 20 20 17 16 15 15 15 14 16 16 17 17 18 19 19 19 19 19 19 19 18 18 16 15 14 13 12 11 9 8 8 9 10 10 11 10 9 9 8 7 6 8 9 10 10 9 9 8 6 7 8 10 11 12 9 8 8 9 10 7 6 5 1 2 1 1 2 2 2 2 2 2 2 3 3 3 3 3 2 2
21 19 18 23 23 20 19 17 15 15 15 13 14 15 16 17 19 19 20 20 20 20 20 21 19 19 18 17 17 16 14 13 11 10 10 10 10 11 11 10 10 11 11 10 8 7 8 9 7 5 4 6 5 4 5 6 7 10 15 12 8 10 11 10 8 8 6 1 2 2 1 2 2 2 2 2 2 2 3 3 3 3 3 2 2
21 21 21 22 22 20 20 18 17 15 14 13 13 15 15 17 18 19 20 19 19 19 21 22 20 19 19 18 18 17 16 15 13 12 11 9 9 9 9 10 10 10 9 8 7 7 7 6 5 4 4 5 6 5 4 6 7 7 15 14 8 10 12 11 10 10 8 3 2 3 2 2 2 2 2 2 2 2 3 3 3 3 2 3 3
21 22 22 21 20 20 20 19 18 16 13 13 13 14 16 17 18 19 20 19 19 20 22 23 21 19 18 18 18 17 16 15 14 13 10 9 9 8 9 9 9 8 7 6 7 7 5 4 4 5 5 5 7 6 4 4 4 4 10 13 10 10 13 13 11 12 9 4 2 2 4 3 3 3 2 2 1 1 2 3 3 3 2 3 3
23 24 23 22 20 20 19 18 19 17 14 13 13 14 16 18 20 20 20 19 20 22 23 23 21 19 18 18 17 16 15 15 14 13 11 10 7 8 9 9 7 6 5 5 6 7 4 3 4 4 5 6 6 7 6 6 6 4 5 9 7 9 13 15 14 14 10 5 3 2 3 4 4 4 3 2 1 1 2 3 3 3 3 4 4
24 25 24 23 22 20 19 18 19 19 17 15 14 14 16 19 20 20 20 19 20 23 23 22 21 20 19 17 16 16 15 15 14 13 12 8 6 8 9 8 6 5 5 5 5 5 3 1 4 5 5 6 6 7 8 9 9 7 5 5 3 2 9 14 17 15 9 5 5 3 2 2 2 3 3 2 2 1 1 2 3 4 4 4 5
25 27 25 23 23 21 20 20 20 19 18 17 15 14 16 17 18 18 19 20 21 22 23 22 21 19 18 17 16 16 16 15 13 12 9 6 7 9 8 7 7 6 6 6 5 4 3 2 3 4 5 6 6 8 8 9 7 4 3 5 4 1 6 13 16 14 9 6 5 4 4 2 1 3 2 1 1 1 1 1 2 3 2 3 5
25 29 26 24 24 22 21 21 20 18 17 18 17 16 16 16 17 17 18 21 22 22 23 22 20 19 18 15 14 16 16 13 12 10 7 6 10 9 6 7 7 7 6 5 5 4 3 3 3 3 4 5 7 9 9 9 6 7 4 5 5 3 6 7 6 11 12 8 5 6 6 6 5 5 3 2 2 2 1 2 3 3 3 3 4
26 27 26 26 24 22 23 22 21 18 17 17 17 17 18 18 18 17 17 19 22 23 23 22 19 19 17 14 13 16 16 12 11 9 5 8 11 8 7 7 7 6 6 6 5 4 4 4 4 4 5 6 10 11 9 9 4 5 5 4 6 4 4 2 2 11 14 9 9 8 7 9 8 6 5 4 4 4 4 5 5 5 5 4 5
25 25 26 27 23 23 24 23 22 20 18 18 18 19 18 18 18 17 17 19 22 23 23 22 20 18 17 15 14 16 16 12 10 7 5 9 11 8 7 7 7 6 6 7 5 4 3 3 3 4 5 8 11 11 11 10 5 2 4 5 5 3 4 2 3 11 12 10 11 10 9 11 10 8 7 6 5 5 6 7 7 6 6 6 6
23 24 27 26 25 26 25 24 23 20 20 20 21 22 19 17 17 17 18 20 24 24 23 22 20 19 17 17 16 15 16 12 9 7 7 10 10 8 8 7 6 5 5 6 5 4 2 2 3 4 6 8 9 9 11 10 5 6 4 8 5 4 7 5 6 10 11 11 13 13 14 14 12 12 10 8 7 5 6 9 10 8 7 8 8
24 25 26 26 26 27 26 25 24 22 21 21 23 23 21 20 19 18 18 20 22 22 21 21 21 20 18 17 16 16 17 14 10 9 9 10 9 8 8 7 6 5 4 5 5 4 2 4 4 3 5 8 9 7 9 9 4 4 4 9 8 7 8 8 8 10 11 11 13 12 14 16 15 16 14 11 11 9 8 11 11 9 9 10 10
25 26 25 26 27 27 26 26 25 23 22 22 22 21 20 21 20 19 20 21 22 21 21 21 20 19 18 18 16 16 18 16 13 11 9 9 9 8 8 7 6 5 4 4 5 5 4 5 3 4 6 8 9 7 9 8 2 3 2 5 6 7 9 10 8 9 9 6 6 3 4 9 7 10 16 15 14 10 7 10 12 11 10 10 12
24 25 25 25 26 25 25 26 26 24 23 23 23 20 19 19 17 18 21 22 21 21 20 20 19 18 19 19 16 17 19 18 15 11 9 10 9 8 8 7 6 6 5 5 6 5 6 5 3 6 5 6 8 6 7 9 9 8 3 1 2 4 6 6 1 2 4 2 2 1 2 1 2 2 10 11 11 9 3 4 7 9 10 10 12
22 23 26 25 25 25 24 25 25 24 23 23 22 21 21 20 17 15 18 20 18 18 19 19 20 20 20 19 17 17 18 19 16 12 11 9 8 8 8 6 6 6 7 6 6 5 5 4 2 4 3 5 5 4 5 8 12 10 3 1 1 2 1 3 2 5 4 2 1 2 1 4 4 2 5 3 5 6 5 4 3 7 9 10 12
21 22 25 24 25 26 24 24 24 23 23 22 20 20 21 21 21 19 19 21 19 19 21 21 22 22 21 20 18 17 17 18 16 13 10 8 7 8 8 8 6 6 7 6 6 6 5 5 5 4 2 3 5 6 6 6 10 11 4 2 2 1 1 3 2 4 5 5 3 3 3 2 4 2 1 2 3 4 6 4 4 6 5 6 9
20 21 23 23 25 27 25 23 23 23 22 21 20 19 18 18 23 23 21 23 22 22 23 22 23 23 21 20 18 16 16 15 13 12 11 10 9 8 8 8 6 5 6 5 5 5 5 5 6 5 2 1 3 6 7 6 8 11 9 6 5 3 2 1 1 1 5 4 4 5 1 4 4 4 2 4 6 4 4 4 4 5 2 1 3
21 22 21 22 26 27 25 24 23 22 22 21 20 20 18 18 22 22 21 23 22 22 23 22 22 22 21 20 17 17 17 14 13 12 12 11 9 7 8 8 6 6 6 5 5 5 4 4 4 5 4 1 1 5 7 7 8 9 10 8 6 4 2 2 2 1 2 3 5 7 4 3 4 4 3 6 6 4 3 4 5 4 1 1 2
21 23 22 23 28 27 25 24 22 21 23 21 20 21 20 19 18 18 20 23 20 21 23 22 21 22 22 20 18 17 17 15 15 13 13 12 10 9 9 8 7 7 6 5 5 5 5 6 5 4 4 2 1 4 5 6 7 8 10 7 5 7 5 2 2 2 2 0 4 6 4 4 5 4 4 6 5 4 5 6 7 7 5 5 6
21 22 23 25 28 28 25 24 22 22 23 21 19 21 22 20 18 17 19 19 19 20 21 22 21 22 23 20 18 19 16 16 16 14 13 13 13 12 10 10 8 7 8 7 6 6 6 7 6 4 4 3 0 2 2 5 6 5 7 7 6 7 4 3 3 2 3 1 2 3 4 7 8 7 6 6 6 6 5 6 8 8 7 8 10
21 20 22 27 29 28 26 25 23 22 24 22 20 22 22 21 19 18 19 18 18 18 18 22 20 19 23 20 19 21 16 15 17 14 14 13 12 12 11 11 9 8 9 7 6 7 6 6 6 5 4 4 3 2 2 4 4 3 5 6 8 7 3 2 3 2 2 2 1 3 6 7 7 9 9 7 7 6 6 7 9 8 7 8 9
22 20 22 27 29 29 27 26 25 22 24 24 21 21 22 23 20 19 20 19 19 19 17 21 20 18 23 20 19 22 18 16 17 15 15 13 12 12 11 10 9 8 8 7 5 6 7 6 6 6 5 4 4 5 4 3 3 4 5 6 8 9 7 4 3 3 1 2 1 3 6 7 7 8 9 9 7 6 6 8 9 9 8 7 7
Wind_Direction
150 146 140 132 127 126 121 117 117 120 119 121 121 117 113 110 107 104 102 102 105 105 102 101 105 109 104 99 101 100 94 93 92 94 98 101 101 98 96 95 94 93 91 91 92 93 93 94 95 98 101 102 100 99 99 100 101 101 101 101 101 101 101 101 100 101 102 103 104 104 103 100 99 98 96 93 93 95 96 98 99 95 91 90 91
147 143 142 136 129 130 126 119 117 117 115 117 119 118 114 109 105 101 99 98 99 100 98 100 106 109 100 94 101 101 97 98 93 94 99 100 98 99 99 97 96 94 93 92 93 93 93 95 96 97 98 101 103 104 103 103 103 102 101 100 100 100 101 101 100 99 99 99 99 100 100 98 97 97 100 101 100 99 98 100 100 95 92 92 92
139 144 145 139 133 133 128 121 118 116 116 117 116 118 115 109 105 99 96 95 97 101 100 100 104 107 99 94 100 101 99 99 94 95 99 97 97 100 100 99 98 96 96 95 96 96 96 97 98 97 95 98 103 105 105 105 105 104 102 100 99 100 101 101 99 98 98 98 99 100 99 98 97 99 104 107 106 104 102 103 101 97 97 95 95
144 150 145 142 136 133 128 123 120 120 119 119 117 115 113 108 104 100 98 99 102 106 105 102 102 105 101 99 102 102 100 98 98 100 101 98 97 99 100 101 101 99 99 99 99 98 98 98 97 97 97 100 103 104 106 107 107 106 103 102 100 100 102 102 98 97 98 101 104 105 104 102 100 102 105 106 105 104 104 105 103 101 101 99 97
149 153 149 145 136 133 128 126 123 121 121 119 117 113 111 108 104 102 102 104 107 107 107 105 104 106 105 105 106 104 102 101 101 104 106 103 100 99 99 100 101 103 104 103 103 101 100 98 97 97 102 104 105 107 109 109 109 108 106 106 104 100 101 105 104 103 101 101 105 107 106 105 104 102 103 103 103 103 103 103 103 103 103 103 102
154 153 150 146 137 135 131 130 125 122 124 120 116 113 111 106 103 104 105 109 111 110 109 108 109 111 108 107 109 106 105 107 107 108 109 107 104 102 99 99 101 106 107 105 104 102 101 99 98 100 104 107 108 111 111 111 110 108 108 108 104 101 100 105 111 113 108 104 105 108 108 108 106 104 103 103 103 103 103 103 103 102 102 104 105
153 147 149 149 141 136 133 133 130 126 124 119 115 113 108 103 103 105 107 111 114 114 111 111 113 113 110 111 114 113 112 111 111 113 112 111 110 107 105 106 105 104 105 104 103 102 101 101 101 103 106 109 110 111 111 111 110 106 104 104 102 103 101 103 114 120 117 111 106 108 110 110 109 107 107 106 106 107 106 105 103 102 102 102 103
145 145 153 152 144 138 136 135 135 131 124 120 116 113 108 105 108 108 108 111 115 117 113 113 114 114 113 115 119 119 118 115 114 115 113 113 114 111 109 110 109 105 103 103 103 102 101 103 104 106 108 109 110 111 112 111 108 102 100 101 100 101 99 101 115 122 120 118 112 108 111 112 111 110 110 109 106 106 107 105 102 101 103 106 108
143 148 154 149 146 141 138 136 137 132 125 121 116 113 110 109 112 110 107 110 115 116 114 113 113 116 116 119 123 118 117 120 119 116 113 112 114 113 112 112 110 106 104 104 103 104 104 107 109 110 110 109 111 112 113 111 107 102 102 104 99 97 98 101 115 118 116 120 112 99 108 116 115 114 117 115 109 108 109 109 107 107 110 115 117
143 149 151 147 145 141 138 138 136 132 127 122 118 116 113 112 112 111 108 109 112 113 113 112 112 115 117 123 124 115 113 119 122 119 115 115 117 116 117 116 110 106 109 107 105 109 109 110 113 114 113 112 113 114 115 113 109 108 109 105 98 97 100 105 115 115 112 119 115 104 111 121 119 119 120 117 114 113 111 114 118 120 120 118 116
144 149 151 148 144 140 140 140 136 131 127 123 118 116 114 113 112 112 112 112 112 113 115 114 112 113 118 125 121 117 117 118 121 122 118 119 117 116 119 117 111 112 115 112 113 114 114 115 116 116 116 117 117 118 117 115 115 114 112 105 100 102 108 110 113 115 115 123 127 122 126 126 119 120 118 115 114 114 113 115 120 123 120 115 113
145 149 149 145 143 144 143 140 136 131 127 123 116 115 117 118 118 117 118 117 114 116 117 115 114 115 122 125 120 121 123 118 121 124 121 120 117 116 119 115 112 119 119 117 120 119 120 120 120 118 118 120 123 123 121 121 121 119 117 112 108 111 117 118 114 116 117 122 128 126 129 126 117 118 118 117 117 116 117 118 121 121 117 116 115
143 148 147 145 146 147 144 139 136 132 129 123 116 114 118 125 127 125 123 121 119 118 120 119 119 119 123 124 121 124 125 121 124 125 122 121 119 117 115 111 114 124 124 125 126 125 126 125 124 120 119 121 123 125 127 129 129 125 123 121 119 117 120 124 123 125 127 127 129 125 126 126 122 122 122 121 121 119 119 120 121 120 116 116 116
143 151 151 146 145 147 144 140 135 132 129 121 117 116 120 126 126 127 126 125 123 125 126 125 125 123 121 122 124 124 126 127 127 125 122 121 119 118 116 112 117 126 129 133 132 131 132 132 128 121 119 120 122 126 132 137 137 132 129 126 122 120 126 131 131 131 136 141 142 140 134 132 128 123 123 122 123 123 125 128 128 124 121 122 121
145 152 151 145 144 147 145 140 136 133 127 123 123 123 127 130 128 128 128 129 129 133 132 127 126 122 119 121 125 126 127 129 128 127 123 123 122 121 120 117 123 131 135 137 136 135 136 135 130 123 120 121 123 127 136 143 143 137 132 130 127 130 140 146 149 140 140 150 150 144 140 136 128 122 126 122 121 121 124 128 128 127 127 127 126
143 148 146 144 145 146 145 140 138 134 128 129 132 130 132 134 135 134 136 140 141 142 134 127 127 122 121 124 125 127 129 129 130 128 124 126 125 120 118 121 130 136 139 140 140 140 140 140 133 125 121 122 125 128 138 146 146 141 139 139 137 137 137 145 159 158 156 161 159 142 135 137 132 131 134 125 120 120 121 119 115 118 121 125 123
144 148 144 142 144 146 145 139 137 134 133 135 137 137 137 137 137 141 148 150 150 149 137 129 130 125 125 129 130 129 130 132 133 132 130 130 128 125 125 132 137 139 143 143 144 145 147 147 138 130 123 121 123 126 139 148 147 144 144 142 136 128 121 134 153 166 172 170 169 111 112 135 136 136 134 127 124 123 122 117 113 114 113 114 118
145 149 144 143 144 145 144 139 138 138 139 141 140 141 142 142 140 148 153 149 151 151 140 134 133 131 130 131 135 135 135 137 137 138 139 138 137 138 138 140 141 140 142 145 149 151 153 149 141 134 127 123 119 121 135 148 147 143 142 137 135 126 125 140 149 170 182 181 190 59 80 130 139 141 136 131 127 123 120 118 118 119 117 112 110
146 146 143 143 142 143 144 140 141 143 148 150 146 145 147 149 146 150 151 148 154 154 145 142 138 138 137 135 136 137 139 140 139 141 145 143 142 142 140 141 140 139 142 148 152 155 155 149 143 138 136 129 115 115 125 139 141 139 140 138 139 132 132 132 135 178 197 209 235 24 49 133 147 149 142 135 130 128 128 130 131 124 118 107 92
146 145 144 144 143 147 147 142 145 150 155 155 153 150 150 155 149 148 148 149 158 155 149 149 145 143 142 139 139 141 141 140 141 141 145 145 143 140 138 140 139 138 143 150 154 156 155 151 146 142 142 131 117 118 123 131 137 139 141 144 146 146 152 139 139 198 210 229 265 358 15 137 161 164 155 145 142 146 145 142 143 136 121 107 101
147 149 147 147 150 152 146 144 152 155 157 158 156 152 154 157 149 145 148 152 158 152 150 152 149 146 144 144 146 150 147 145 147 147 150 151 144 142 140 143 142 143 149 154 157 156 156 155 150 147 143 133 128 130 132 135 140 144 145 144 141 140 153 161 189 207 230 253 278 337 350 81 186 193 184 166 159 165 161 151 140 123 104 101 99
148 151 149 150 156 153 148 151 155 156 158 158 155 156 159 160 154 150 152 156 155 153 159 160 156 154 152 152 152 152 149 147 150 152 155 153 146 145 142 145 150 154 160 164 163 160 161 159 153 152 151 146 144 143 146 148 150 152 148 139 131 122 94 149 186 212 270 262 284 327 347 358 256 240 223 203 188 177 157 157 136 112 104 95 83
149 153 154 156 160 154 154 159 159 158 162 161 159 162 165 163 160 159 158 161 158 160 168 167 164 165 160 156 153 150 149 150 153 155 155 150 145 145 144 150 159 164 172 176 175 171 170 167 162 163 165 165 161 154 155 158 161 160 152 146 143 145 122 139 190 234 266 245 293 317 347 355 282 269 243 227 208 175 148 156 137 119 108 90 78
154 155 155 158 159 156 160 166 164 164 167 167 165 167 169 166 164 165 168 168 166 166 168 168 170 169 163 158 155 151 154 158 159 158 157 151 145 147 153 161 171 177 183 188 186 184 184 181 179 181 185 187 181 172 172 173 175 179 172 158 151 161 157 167 210 236 241 251 309 322 343 344 298 280 252 233 213 174 152 166 145 136 120 90 61
156 155 157 158 160 161 163 166 168 168 168 170 169 167 169 169 166 170 173 172 170 166 165 172 173 168 164 162 158 156 161 164 161 157 155 151 145 150 158 162 170 172 178 188 189 189 191 190 192 198 204 208 205 199 198 201 205 212 210 194 184 185 194 215 222 225 242 286 311 329 346 333 299 278 258 239 216 177 164 183 149 140 137 141 213
157 157 160 158 157 160 161 165 170 171 168 169 169 165 168 171 169 170 173 171 169 165 167 175 171 163 165 166 165 164 166 166 161 153 151 150 146 149 150 149 156 158 163 173 184 195 194 192 200 213 225 233 237 232 226 225 225 229 232 224 218 226 219 213 218 230 258 297 306 323 355 296 282 263 256 242 214 178 168 177 159 154 177 183 199
157 161 161 155 153 154 157 164 171 173 168 169 170 167 169 170 169 172 174 171 170 169 171 174 167 162 168 172 171 169 168 166 158 153 154 151 145 147 146 145 153 154 155 164 181 199 200 207 223 235 246 254 263 262 255 243 232 233 235 231 236 236 207 205 217 234 261 294 302 310 345 247 244 243 245 237 218 182 167 168 161 166 191 200 225
155 157 158 156 155 153 157 165 171 173 167 169 173 172 170 169 171 173 173 174 174 172 172 172 168 167 172 174 171 169 168 164 158 155 154 150 149 161 165 167 174 170 173 194 200 211 221 235 247 257 265 268 274 277 276 261 239 220 219 223 224 218 205 208 214 227 258 288 326 132 174 196 206 223 227 226 225 198 180 176 166 167 181 188 211
155 153 155 155 154 153 159 167 172 172 165 166 171 170 168 169 174 173 172 175 177 175 174 172 169 169 172 171 169 168 166 161 160 159 159 164 167 178 191 195 197 197 205 223 230 238 254 262 267 274 274 273 278 283 279 258 229 193 187 200 197 204 212 208 212 235 247 275 6 83 144 164 185 204 209 212 213 206 197 186 177 177 187 190 204
156 157 156 152 152 154 160 168 172 171 164 164 167 167 170 169 169 169 169 172 177 180 178 173 169 169 171 170 167 165 164 163 165 173 182 186 185 192 203 207 212 221 226 236 245 254 271 278 281 279 274 273 276 290 278 236 213 199 192 183 171 180 196 204 224 237 223 252 9 57 134 156 170 197 202 197 191 203 208 201 191 181 186 199 220
155 157 153 147 151 154 157 166 172 171 168 169 166 166 170 167 163 165 166 168 174 179 178 175 172 171 171 169 165 164 168 170 174 188 195 193 199 204 208 219 230 231 229 234 244 254 267 275 283 281 284 289 279 298 294 237 237 229 205 189 172 166 177 202 225 219 208 217 35 55 108 153 157 187 181 183 189 203 214 213 205 189 184 200 224
155 155 152 145 148 151 155 163 167 169 174 175 164 160 164 164 163 165 165 166 170 176 175 174 175 174 172 168 166 167 171 175 178 187 194 194 202 213 224 238 232 219 219 220 228 244 257 271 283 281 283 298 287 292 309 261 262 235 199 192 185 177 185 200 209 208 201 183 97 57 77 121 126 161 155 160 182 207 227 229 221 205 192 206 232
154 155 152 147 148 152 155 162 166 171 179 179 164 156 158 160 163 165 167 170 171 173 172 173 176 175 173 171 170 172 174 177 179 179 182 185 201 231 237 222 205 203 217 212 220 236 251 280 268 262 268 287 288 281 292 257 233 208 196 197 200 200 195 192 200 209 197 165 147 77 78 95 104 118 128 138 176 231 244 251 251 239 222 233 254
157 157 153 151 151 152 154 161 166 169 174 175 166 159 157 157 161 164 169 174 173 173 172 173 175 175 176 178 179 178 178 178 176 174 174 184 215 234 216 202 198 200 206 205 219 231 239 279 251 254 280 287 287 277 279 264 249 267 221 194 196 206 198 194 200 201 188 157 165 150 84 91 101 98 95 93 65 290 268 272 267 268 256 259 277
157 154 154 154 153 154 153 159 165 168 170 169 163 162 159 158 162 165 169 174 175 176 175 174 174 176 178 182 184 182 181 179 178 181 185 203 233 216 200 204 205 193 197 209 219 225 227 270 253 259 282 279 279 272 271 273 269 279 256 197 172 208 200 197 194 189 182 165 165 167 133 87 94 106 96 59 29 22 314 292 278 283 280 280 284
152 148 151 153 153 155 153 158 167 169 168 163 158 162 161 160 163 164 167 171 174 177 176 175 175 176 177 179 183 182 180 180 181 188 191 209 216 201 200 201 194 197 208 215 215 218 221 249 256 269 286 275 281 282 279 284 264 232 214 186 173 150 166 174 182 184 176 166 169 181 196 211 196 167 133 1 329 29 347 310 298 291 290 296 286
149 146 151 152 151 154 153 157 165 169 164 159 157 161 163 163 165 165 169 171 173 176 176 177 177 177 178 177 181 181 177 176 180 182 181 196 196 190 193 194 196 200 199 211 219 221 229 244 257 291 298 286 304 305 300 311 278 212 184 157 159 127 132 143 173 184 173 167 187 202 215 227 224 207 187 202 219 209 267 282 283 286 286 287 281
146 148 153 149 147 152 153 154 161 164 162 159 158 161 163 165 167 167 168 170 173 175 175 177 178 180 182 179 180 179 175 173 176 176 179 194 192 188 191 194 201 193 192 212 219 230 237 235 248 278 296 298 309 310 310 328 318 213 207 171 164 135 119 80 102 172 177 187 203 210 230 231 226 216 199 206 219 228 254 271 275 285 289 278 274
145 150 149 145 148 153 151 152 157 159 158 156 155 158 159 161 166 167 166 167 170 173 176 179 177 182 188 185 180 178 175 172 172 176 190 196 194 195 190 187 198 194 195 211 211 222 218 208 253 282 291 293 299 304 307 318 336 278 234 171 180 184 155 170 170 176 188 207 210 215 229 223 223 224 217 222 229 236 249 265 275 285 297 286 277
146 147 145 146 151 151 149 150 153 156 156 154 156 159 156 161 167 166 167 171 173 175 178 179 178 183 190 186 183 181 175 169 174 185 190 191 187 183 183 181 193 196 202 216 214 202 199 238 267 286 287 298 306 307 312 310 301 293 241 156 176 202 171 206 213 187 202 228 225 220 222 221 224 226 225 230 230 241 255 259 269 279 296 295 288
145 144 144 147 149 148 148 150 152 158 160 158 162 163 160 164 169 169 171 173 176 177 178 181 180 182 187 187 186 183 176 172 181 187 183 182 175 170 179 186 193 203 215 224 215 197 216 244 246 292 297 311 315 312 325 315 266 277 229 165 179 188 182 212 212 206 224 238 233 224 221 221 226 228 227 232 231 239 263 262 268 281 290 294 298
142 144 144 145 148 149 151 152 155 160 164 163 165 169 168 166 167 172 172 170 175 179 177 179 180 183 193 191 187 186 181 180 184 182 176 176 176 177 183 188 192 197 201 197 190 185 197 215 246 309 305 310 300 308 347 342 330 319 286 172 192 201 203 213 215 238 241 229 226 214 192 201 213 231 227 236 240 238 269 268 262 276 283 288 292
143 146 147 147 150 153 155 155 157 161 165 167 167 172 177 171 164 166 171 173 178 181 176 175 178 188 193 187 188 193 186 185 185 181 176 173 173 182 184 183 187 188 189 189 184 188 198 209 285 302 302 322 300 308 7 13 14 1 350 84 212 212 221 235 211 211 216 216 229 143 72 120 66 217 214 228 234 226 298 299 260 274 280 279 281
148 149 150 151 155 160 160 158 160 164 168 172 173 172 175 177 168 164 174 178 180 183 182 181 182 184 183 182 191 196 189 189 188 182 182 180 177 186 187 184 189 188 188 189 184 189 199 209 264 275 293 356 349 348 15 18 21 19 359 288 274 125 97 288 18 81 93 44 340 233 304 13 34 150 190 201 214 228 301 330 300 296 284 276 280
157 155 153 156 160 164 165 163 163 168 173 175 175 173 173 175 169 170 176 173 176 185 183 178 177 178 179 183 193 196 190 189 189 183 185 194 195 193 192 189 192 190 190 196 195 200 212 226 235 238 262 2 6 5 12 13 25 37 41 352 358 74 69 292 322 48 47 48 28 306 282 62 62 107 172 348 335 286 279 274 308 323 312 292 290
166 162 160 162 163 166 168 169 169 172 176 174 173 174 175 171 164 166 167 160 164 178 176 170 172 178 180 183 193 195 187 185 188 186 191 204 200 188 188 190 191 191 201 216 212 216 233 233 228 222 208 61 16 11 20 19 28 45 48 47 61 108 170 35 39 353 2 26 36 4 21 128 91 67 46 331 325 308 268 269 313 340 15 339 293
171 169 167 167 166 167 169 174 176 176 175 172 176 176 172 169 164 164 166 162 162 170 174 173 174 178 180 184 193 190 183 189 194 192 198 204 199 189 187 190 194 191 202 221 209 217 233 212 193 186 183 174 26 14 13 11 23 37 37 47 68 67 60 57 106 175 338 358 5 9 31 89 50 25 339 312 312 317 307 298 309 313 276 184 296
173 172 170 168 166 168 171 176 178 178 176 175 180 179 172 169 166 164 168 171 170 170 174 177 177 180 181 184 191 184 182 194 197 197 199 196 195 199 195 193 195 192 203 215 208 227 237 203 180 184 195 210 355 9 2 8 18 14 17 39 45 21 22 83 100 122 136 299 331 353 6 348 346 339 320 316 314 325 318 302 303 297 270 268 295
175 175 173 167 166 169 173 177 178 179 181 179 179 180 175 168 164 165 168 172 175 175 177 180 184 186 184 182 184 184 188 194 194 196 194 192 198 201 200 198 194 191 200 206 211 229 226 199 195 216 214 199 312 345 331 358 12 355 358 11 1 5 40 103 103 107 114 115 301 321 334 336 338 338 341 330 316 317 307 300 312 311 291 288 297
176 179 173 166 166 169 172 177 179 180 183 183 180 180 178 173 170 172 173 174 179 180 179 183 187 184 180 179 181 187 192 191 192 195 191 195 202 200 200 203 196 190 194 201 219 214 203 209 218 217 205 200 220 241 284 329 334 318 328 326 319 322 320 131 142 164 105 95 240 286 317 337 338 333 343 340 320 309 300 304 316 319 308 295 294
183 180 165 163 167 168 172 177 181 183 183 184 184 182 181 180 179 178 178 178 180 183 180 183 186 179 175 177 183 190 192 188 192 197 196 200 204 199 202 205 196 192 201 209 210 193 193 223 231 210 205 224 240 245 251 269 277 283 293 293 302 306 287 239 208 222 164 121 162 286 305 326 325 314 329 341 328 302 298 309 313 313 310 296 287